Regional Weather Roundup
Issued by NWS Grand Forks, ND

Home | Current Version | Previous Version | Graphics & Text | Print | Product List | Glossary On
Versions: 1 2 3 4 5 6 7 8 9 10 11 12 13 14 15 16 17 18 19 20 21 22 23 24 25 26 27 28 29 30 31 32 33 34 35 36 37 38 39 40 41 42 43 44 45 46 47 48 49 50
000
ASUS43 KFGF 282210
RWRFGF
PRAIRIE TO PINES  WEATHER ROUNDUP
NATIONAL WEATHER SERVICE EASTERN NORTH DAKOTA/GRAND FORKS ND
500 PM CDT TUE JUL 28 2015

 **SATELLITE DATA USED TO AUGMENT SKY COVER AT AUTOMATED STATIONS**
 *****  WEATHER ACROSS EASTERN NORTH DAKOTA  *****

CITY           SKY/WX    TMP DP  RH WIND       PRES   REMARKS
GRAND FORKS    PTSUNNY   75  54  47 SW20G29   29.63S
GRAND FRKS AFB CLOUDY    74  55  50 SW18G30   29.64R
GRAND FRKS NWS   N/A     75 N/A N/A SW21        N/A
DEVILS LAKE    CLOUDY    72  52  49 W25G39    29.58S
FARGO          MOSUNNY   80  53  39 SW25G33   29.73R
WAHPETON ARPT  CLEAR     79  50  36 W23G30    29.79S
$$

 ***** WEATHER ACROSS CENTRAL AND WESTERN NORTH DAKOTA  *****

CITY           SKY/WX    TMP DP  RH WIND       PRES   REMARKS
BISMARCK       PTSUNNY   70  47  43 W29G52    29.78R
MINOT          LGT RAIN  66  49  54 SW35G52   29.51F
JAMESTOWN      PTSUNNY   74  51  44 W29G43    29.72R
MINOT AFB      CLOUDY    65  53  67 W37G49    29.47F
GARRISON         N/A     64  50  60 W29G44    29.65R
WILLISTON      LGT RAIN  59  54  83 W35G49    29.63R
DICKINSON      CLOUDY    66  46  48 W46G66    29.82R
HETTINGER      CLOUDY    68  45  43 W38G55    29.93R
$$

 *****  OTHER AIRPORT OBSERVATIONS IN OUR AREA  *****

CITY           SKY/WX    TMP DP  RH WIND       PRES   REMARKS
WALHALLA       FAIR      73  55  53 MISG      29.52F
GRAFTON AIRPOR MOCLDY    73  55  53 SW24G38   29.60R
VALLEY CITY AR NOT AVBL
CANDO          NOT AVBL
CAVALIER APRT  MOCLDY    73  55  53 SW17G28   29.54F
GWINNER        FAIR      77  54  44 W28G37    29.78S
SHEYENNE NWR     N/A     79  53  40 W20       29.95
ROLLA          CLOUDY    63  52  67 SW31G53   29.48F
 ***** THE ABOVE OBSERVATIONS ARE NON NWS ARE NOT QUALITY
       CONTROLLED AND MAY MIS-REPORT RAIN FOR SNOW...
$$

  *****  WEATHER ACROSS NORTHERN MINNESOTA  *****

CITY           SKY/WX    TMP DP  RH WIND       PRES   REMARKS
FLAG ISLAND    MOSUNNY   79  63  57 SW26G37   29.57R
WARROAD        MOSUNNY   79  64  61 SW20G30   29.62R
ROSEAU         SUNNY     77  63  61 SW25G37   29.62R
HALLOCK        PTSUNNY   73  55  53 SW18G33   29.58R
THF RVR FALLS  PTSUNNY   73  55  53 SW18G31   29.67S
BAUDETTE       MOSUNNY   78  60  53 SW22G29   29.63R
WASKISH        PTSUNNY   81  64  57 SW17G25   29.67R
CROOKSTON      MOSUNNY   75  57  53 SW17G28   29.68S
STEPHEN NDAWN    N/A     73  55  53 SW17        N/A
GREENBUSH NDAW   N/A     75  55  50 SW18        N/A
$$
  *****  WEATHER ACROSS CENTRAL AND WEST MINNESOTA  *****

CITY           SKY/WX    TMP DP  RH WIND       PRES   REMARKS
FOSSTON        MOSUNNY   73  61  64 SW21G31   29.73S
BEMIDJI        SUNNY     79  59  50 SW15G25   29.72R
PARK RAPIDS    SUNNY     81  57  43 SW20G26   29.76R
ELBOW LAKE     FAIR      76  60  56 W16G23    29.81S
WADENA         SUNNY     79  61  53 W15G22    29.77S
DETROIT LAKES  MOSUNNY   77  55  47 W17G25    29.78S
MOORHEAD       MOSUNNY   79  54  41 SW18G24   29.75R
FERGUS FALLS   MOSUNNY   79  57  47 W18G26    29.78S
MORRIS MN      SUNNY     79  61  53 W20       29.82R
STAPLES        PTSUNNY   79  59  50 SW13      29.78R
$$
  *****  WEATHER ELSEWHERE ACROSS MINNESOTA  *****

CITY           SKY/WX    TMP DP  RH WIND       PRES   REMARKS
DULUTH         MOSUNNY   84  67  56 SW14      29.78F
INTRNTL FALLS  PTSUNNY   80  68  66 SW15G23   29.66F
ELY            MOSUNNY   82  63  51 W13G21    29.75F
CLOQUET        PTSUNNY   82  64  54 SW9G16    29.78F
WHEATON        SUNNY     75  55  50 SW18G26   29.82S
BRAINERD       CLOUDY    77  68  73 SW12      29.77F
HIBBING        CLOUDY    80  67  64 S6        29.75F
ALEXANDRIA     SUNNY     79  61  53 W20G25    29.82R
SAINT CLOUD    CLOUDY    80  70  71 SW12      29.79S
MINNEAPOLIS    CLOUDY    83  71  67 S9        29.81S
$$

  *****  WEATHER ACROSS SOUTH DAKOTA  *****

CITY           SKY/WX    TMP DP  RH WIND       PRES   REMARKS
SIOUX FALLS    MOSUNNY   79  57  46 NW18G25   29.92R
BROOKINGS      SUNNY     75  57  53 W18G26    29.91S
WATERTOWN      SUNNY     78  55  44 W22       29.88R
HURON          SUNNY     80  53  39 W23G30    29.90S
SISSETON         N/A     79  55  43 W20G32    29.81R
ABERDEEN       MOSUNNY   80  50  34 W26G37    29.84S
MITCHELL       SUNNY     81  51  35 W21G26    29.93S
PIERRE         SUNNY     83  43  24 W30G41    29.93R
MOBRIDGE       MOSUNNY   76  49  38 W32G43    29.87R
RAPID CITY     PTSUNNY   77  42  28 NW18      30.05R
$$

  *****  SOME WEATHER IN NEARBY STATES *****

CITY           SKY/WX    TMP DP  RH WIND       PRES   REMARKS
GLASGOW MT     PTSUNNY   65  50  58 W29G37    29.87R
GREAT FALLS MT MOSUNNY   73  33  23 W14G24    30.11S
CHEYENNE WY    SUNNY     78  33  19 SE15G21   30.19R
SCOTTSBLUFF NE SUNNY     82  29  14 NW6       30.10F
OMAHA NE       PTSUNNY   89  75  63 NW9       29.86F HX  99
DES MOINES IA  TSTM      80  75  84 SE14G26   29.84F
DAVENPORT IA   CLOUDY    83  77  82 S7        29.90R HX  92
CHICAGO IL     PTSUNNY   89  70  53 SE14      29.87S HX  94
EAU CLAIRE WI  SUNNY     85  71  63 SW8       29.83S HX  90
LA CROSSE WI   MOSUNNY   84  72  67 S9        29.86R
$$

  *****  SOME NATIONAL WEATHER *****

CITY           SKY/WX    TMP DP  RH WIND       PRES   REMARKS
LA GUARDIA NY  PTSUNNY   89  64  43 S9        29.93F HX  90
RALEIGH NC     LGT RAIN  86  71  60 SE3       29.97F HX  91
ATLANTA GA     PTSUNNY   94  72  48 W7        29.96F HX 102
NEW ORLEANS LA MOSUNNY   93  68  43 SE7       29.96F HX  97
OKLAHOMA CITY  MOSUNNY   94  69  44 S15       29.92F HX  99
ALBUQUERQUE NM PTSUNNY   93  45  19 W9        30.08F
SALT LAKE CITY SUNNY     76  24  14 NW13G18   30.22F
LOS ANGELES CA SUNNY     74  62  66 W14       29.88F
BOISE ID       MOSUNNY   77  34  21 W6        30.21F
SEATTLE WA     MOSUNNY   80  51  36 N13G20    30.24F
$$

*** WEATHER ACROSS MANITOBA...SASKATCHEWAN AND ONTARIO ***
                ***ONTARIO***

CITY           SKY/WX    TMP DP  RH WIND       PRES   REMARKS
GERALDTON      CLOUDY    79  63  57 S16G22    29.86F
THUNDER BAY    PTSUNNY   72  63  73 E9        29.81F
SIOUX LOOKOUT  LGT RAIN  72  70  94 S10G18    29.65S
TORONTO        PTSUNNY   88  57  35 SE12      29.98S
BIG TROUT LK   MOSUNNY   86  61  42 S14       29.61F
PICKLE LAKE    LGT RAIN  81  64  57 SE14G23   29.67F
DRYDEN         PTSUNNY   75  70  83 S16G22    29.62F
KENORA         PTSUNNY   79  66  65 S20G30    29.57S
$$
                *** MANITOBA***

CITY           SKY/WX    TMP DP  RH WIND       PRES   REMARKS
BRANDON        PTSUNNY   68  57  68 S18G35    29.34F
DAUPHIN        CLOUDY    70  59  68 S7        29.32F
ISLAND LAKE    CLOUDY    75  68  78 SE12      29.46F
PILOT MOUND      N/A     66  54  63 SW21G28     N/A
THE PAS        LGT RAIN  63  61  94 NE13G26   29.42F
THOMPSON       LGT RAIN  63  61  94 NE14G20   29.56F
WINNIPEG       PTSUNNY   73  57  56 S20G32    29.49S
LYNN LAKE        N/A    N/A N/A N/A MISG        N/A
CHURCHILL      CLOUDY    59  54  82 E12       29.71F
GILLAM         TSTM      72  63  73 N12       29.62S
$$
                ***SASKATCHEWAN***

CITY           SKY/WX    TMP DP  RH WIND       PRES   REMARKS
ESTEVAN        LGT RAIN  61  57  88 W26G38    29.29R
KINDERSLEY     PTSUNNY   70  48  46 NW16G26   29.86R
LLOYDMINSTER   PTSUNNY   72  46  40 NW15G23   29.85R
PRINCE ALBERT  LGT RAIN  61  59  94 N5        29.67R FOG
REGINA         LGT RAIN  57  55  94 NW37G48   29.48R
YORKTON        CLOUDY    66  59  77 SE3       29.32S
N. BATTLEFORD  SUNNY     70  54  56 N10       29.80S
LA RONGE       PTSUNNY   72  54  53 N12G20    29.68S
SASKATOON      LGT RAIN  63  59  88 NW6       29.74R
SWIFT CURRENT  MOSUNNY   66  50  55 NW28G39   29.82R
$$
NOTE: THESE ARE AUTOMATED STATIONS WITH LIMITED QUALITY CONTROL
      "FAIR" INDICATES FEW OR NO CLOUDS BELOW 12,000 FEET WITH NO
      SIGNIFICANT WEATHER AND/OR OBSTRUCTIONS TO VISIBILITY.
      SKY/WX - SKY CONDITION AND SIGNIFICANT WEATHER.
      TMP - AIR TEMPERATURE.    DP   - DEWPOINT TEMPERATURE.
      RH  - RELATIVE HUMIDITY.  PRES - PRESSURE.
      HX  - HEAT INDEX.         WCI  - WIND CHILL INDEX.
$



USA.gov is the U.S. government's official web portal to all federal, state and local government web resources and services.